Time,TemperatureF,DewpointF,PressureIn,WindDirection,WindDirectionDegrees,WindSpeedMPH,WindSpeedGustMPH,Humidity,HourlyPrecipIn,Conditions,Clouds,dailyrainin,SoftwareType,DateUTC
2013-07-10 00:03:00,82.7,78.1,30.08,SE,136,4.0,9.0,86,0.00,,---,0.00,VWS V14.01,2013-07-10 05:03:00,
2013-07-10 00:08:00,82.7,78.1,30.08,South,179,10.0,11.0,86,0.00,,---,0.00,VWS V14.01,2013-07-10 05:08:00,
2013-07-10 00:13:00,82.7,78.1,30.08,SSE,162,5.0,11.0,86,0.00,,---,0.00,VWS V14.01,2013-07-10 05:13:00,
2013-07-10 00:18:00,82.7,78.1,30.08,SSE,166,8.0,11.0,86,0.00,,---,0.00,VWS V14.01,2013-07-10 05:18:00,
2013-07-10 00:23:00,82.7,77.7,30.08,SSE,155,6.0,11.0,85,0.00,,---,0.00,VWS V14.01,2013-07-10 05:23:00,
2013-07-10 00:28:00,82.7,77.7,30.08,South,187,6.0,11.0,85,0.00,,---,0.00,VWS V14.01,2013-07-10 05:28:00,
2013-07-10 00:33:00,82.7,77.4,30.08,South,191,8.0,11.0,84,0.00,,---,0.00,VWS V14.01,2013-07-10 05:33:00,
2013-07-10 00:38:00,82.7,77.4,30.08,SSE,149,6.0,11.0,84,0.00,,---,0.00,VWS V14.01,2013-07-10 05:38:00,
2013-07-10 00:43:00,82.7,77.4,30.08,ESE,119,6.0,11.0,84,0.00,,---,0.00,VWS V14.01,2013-07-10 05:43:00,
2013-07-10 00:48:00,82.7,77.4,30.08,SSE,149,6.0,11.0,84,0.00,,---,0.00,VWS V14.01,2013-07-10 05:48:00,
2013-07-10 00:53:00,82.7,77.7,30.08,SSE,153,6.0,11.0,85,0.00,,---,0.00,VWS V14.01,2013-07-10 05:53:00,
2013-07-10 00:58:00,82.7,77.7,30.08,SW,215,5.0,11.0,85,0.00,,---,0.00,VWS V14.01,2013-07-10 05:58:00,
2013-07-10 01:03:00,82.7,77.7,30.08,SSW,201,4.0,9.0,85,0.00,,---,0.00,VWS V14.01,2013-07-10 06:03:00,
2013-07-10 01:08:00,82.7,77.4,30.08,South,173,7.0,9.0,84,0.00,,---,0.00,VWS V14.01,2013-07-10 06:08:00,
2013-07-10 01:13:00,82.6,77.3,30.08,SSE,167,7.0,9.0,84,0.00,,---,0.00,VWS V14.01,2013-07-10 06:13:00,
2013-07-10 01:18:00,82.6,76.9,30.08,SSE,156,6.0,9.0,83,0.00,,---,0.00,VWS V14.01,2013-07-10 06:18:00,
2013-07-10 01:23:00,82.6,77.3,30.08,SSE,156,3.0,9.0,84,0.00,,---,0.00,VWS V14.01,2013-07-10 06:23:00,
2013-07-10 01:28:00,82.6,77.3,30.08,SSE,160,4.0,9.0,84,0.00,,---,0.00,VWS V14.01,2013-07-10 06:28:00,
2013-07-10 01:33:00,82.6,77.3,30.08,South,184,2.0,9.0,84,0.00,,---,0.00,VWS V14.01,2013-07-10 06:33:00,
2013-07-10 01:39:00,82.6,77.3,30.08,South,170,8.0,9.0,84,0.00,,---,0.00,VWS V14.01,2013-07-10 06:39:00,
2013-07-10 01:44:00,82.6,77.6,30.08,ESE,115,2.0,9.0,85,0.00,,---,0.00,VWS V14.01,2013-07-10 06:44:00,
2013-07-10 01:49:00,82.6,77.6,30.08,SSE,150,8.0,9.0,85,0.00,,---,0.00,VWS V14.01,2013-07-10 06:49:00,
2013-07-10 01:54:00,82.6,77.6,30.08,SSE,150,4.0,9.0,85,0.00,,---,0.00,VWS V14.01,2013-07-10 06:54:00,
2013-07-10 01:59:00,82.7,78.1,30.08,SSE,150,7.0,9.0,86,0.00,,---,0.00,VWS V14.01,2013-07-10 06:59:00,
2013-07-10 02:04:00,82.7,78.1,30.08,SSE,162,6.0,8.0,86,0.00,,---,0.00,VWS V14.01,2013-07-10 07:04:00,
2013-07-10 02:10:00,82.7,78.1,30.07,SSE,149,7.0,8.0,86,0.00,,---,0.00,VWS V14.01,2013-07-10 07:10:00,
2013-07-10 02:15:00,82.6,78.0,30.08,SSE,162,7.0,9.0,86,0.00,,---,0.00,VWS V14.01,2013-07-10 07:15:00,
2013-07-10 02:20:00,82.7,78.1,30.07,South,175,3.0,9.0,86,0.00,,---,0.00,VWS V14.01,2013-07-10 07:20:00,
2013-07-10 02:25:00,82.7,78.4,30.07,ESE,115,9.0,10.0,87,0.00,,---,0.00,VWS V14.01,2013-07-10 07:25:00,
2013-07-10 02:30:00,82.6,78.3,30.07,SE,146,9.0,10.0,87,0.00,,---,0.00,VWS V14.01,2013-07-10 07:30:00,
2013-07-10 02:35:00,82.4,77.4,30.07,SSE,158,6.0,12.0,85,0.00,,---,0.00,VWS V14.01,2013-07-10 07:35:00,
2013-07-10 02:41:00,82.5,77.5,30.07,SSE,155,6.0,12.0,85,0.00,,---,0.00,VWS V14.01,2013-07-10 07:41:00,
2013-07-10 02:46:00,82.6,77.6,30.07,SSE,167,6.0,12.0,85,0.00,,---,0.00,VWS V14.01,2013-07-10 07:46:00,
2013-07-10 02:51:00,82.6,77.6,30.07,ESE,118,5.0,12.0,85,0.00,,---,0.00,VWS V14.01,2013-07-10 07:51:00,
2013-07-10 02:56:00,82.5,77.5,30.07,South,183,3.0,12.0,85,0.00,,---,0.00,VWS V14.01,2013-07-10 07:56:00,
2013-07-10 03:01:00,82.5,77.5,30.07,SSE,162,7.0,7.0,85,0.00,,---,0.00,VWS V14.01,2013-07-10 08:01:00,
2013-07-10 03:07:00,82.5,77.5,30.07,SSE,158,6.0,9.0,85,0.00,,---,0.00,VWS V14.01,2013-07-10 08:07:00,
2013-07-10 03:12:00,82.5,77.5,30.07,SE,133,4.0,9.0,85,0.00,,---,0.00,VWS V14.01,2013-07-10 08:12:00,
2013-07-10 03:18:00,82.4,77.4,30.07,South,169,7.0,9.0,85,0.00,,---,0.00,VWS V14.01,2013-07-10 08:18:00,
2013-07-10 03:23:00,82.4,77.8,30.07,SSE,159,8.0,9.0,86,0.00,,---,0.00,VWS V14.01,2013-07-10 08:23:00,
2013-07-10 03:28:00,82.4,77.8,30.07,SSE,150,6.0,9.0,86,0.00,,---,0.00,VWS V14.01,2013-07-10 08:28:00,
2013-07-10 03:33:00,82.3,77.7,30.07,SSW,210,5.0,9.0,86,0.00,,---,0.00,VWS V14.01,2013-07-10 08:33:00,
2013-07-10 03:38:00,82.3,77.7,30.06,SSW,201,7.0,9.0,86,0.00,,---,0.00,VWS V14.01,2013-07-10 08:38:00,
2013-07-10 03:43:00,82.3,77.7,30.07,SSE,150,5.0,9.0,86,0.00,,---,0.00,VWS V14.01,2013-07-10 08:43:00,
2013-07-10 03:49:00,82.2,77.6,30.07,SSE,167,6.0,9.0,86,0.00,,---,0.00,VWS V14.01,2013-07-10 08:49:00,
2013-07-10 03:54:00,82.2,77.6,30.06,SE,143,5.0,9.0,86,0.00,,---,0.00,VWS V14.01,2013-07-10 08:54:00,
2013-07-10 04:00:00,82.2,77.6,30.06,SSE,165,4.0,9.0,86,0.00,,---,0.00,VWS V14.01,2013-07-10 09:00:00,
2013-07-10 04:06:00,82.1,77.5,30.07,SSE,149,3.0,6.0,86,0.00,,---,0.00,VWS V14.01,2013-07-10 09:06:00,
2013-07-10 04:11:00,82.2,77.6,30.06,SE,145,4.0,6.0,86,0.00,,---,0.00,VWS V14.01,2013-07-10 09:11:00,
2013-07-10 04:16:00,82.2,77.6,30.06,SSE,155,4.0,6.0,86,0.00,,---,0.00,VWS V14.01,2013-07-10 09:16:00,
2013-07-10 04:22:00,82.2,77.6,30.07,SE,139,2.0,6.0,86,0.00,,---,0.00,VWS V14.01,2013-07-10 09:22:00,
2013-07-10 04:27:00,82.2,77.6,30.07,SSE,153,2.0,6.0,86,0.00,,---,0.00,VWS V14.01,2013-07-10 09:27:00,
2013-07-10 04:32:00,82.1,77.5,30.07,South,184,2.0,6.0,86,0.00,,---,0.00,VWS V14.01,2013-07-10 09:32:00,
2013-07-10 04:38:00,82.0,77.4,30.07,South,181,3.0,8.0,86,0.00,,---,0.00,VWS V14.01,2013-07-10 09:38:00,
2013-07-10 04:43:00,82.0,77.4,30.07,SSE,149,5.0,8.0,86,0.00,,---,0.00,VWS V14.01,2013-07-10 09:43:00,
2013-07-10 04:48:00,82.1,77.2,30.07,South,169,6.0,8.0,85,0.00,,---,0.00,VWS V14.01,2013-07-10 09:48:00,
2013-07-10 04:53:00,82.1,77.5,30.07,SSW,201,2.0,8.0,86,0.00,,---,0.00,VWS V14.01,2013-07-10 09:53:00,
2013-07-10 04:58:00,82.1,77.5,30.07,SSE,148,5.0,8.0,86,0.00,,---,0.00,VWS V14.01,2013-07-10 09:58:00,
2013-07-10 05:03:00,82.0,77.4,30.06,SSW,205,4.0,5.0,86,0.00,,---,0.00,VWS V14.01,2013-07-10 10:03:00,
2013-07-10 05:08:00,82.0,77.4,30.06,SSE,155,1.0,5.0,86,0.00,,---,0.00,VWS V14.01,2013-07-10 10:08:00,
2013-07-10 05:13:00,82.0,77.4,30.06,South,183,2.0,6.0,86,0.00,,---,0.00,VWS V14.01,2013-07-10 10:13:00,
2013-07-10 05:18:00,82.0,77.4,30.07,South,174,2.0,6.0,86,0.00,,---,0.00,VWS V14.01,2013-07-10 10:18:00,
2013-07-10 05:24:00,81.9,77.3,30.06,SSE,149,3.0,6.0,86,0.00,,---,0.00,VWS V14.01,2013-07-10 10:24:00,
2013-07-10 05:29:00,81.9,77.3,30.07,SE,145,4.0,7.0,86,0.00,,---,0.00,VWS V14.01,2013-07-10 10:29:00,
2013-07-10 05:34:00,81.9,77.3,30.07,SSE,165,3.0,7.0,86,0.00,,---,0.00,VWS V14.01,2013-07-10 10:34:00,
2013-07-10 05:39:00,81.9,77.3,30.07,SE,145,5.0,7.0,86,0.00,,---,0.00,VWS V14.01,2013-07-10 10:39:00,
2013-07-10 05:44:00,81.9,77.3,30.07,SE,139,1.0,7.0,86,0.00,,---,0.00,VWS V14.01,2013-07-10 10:44:00,
2013-07-10 05:49:00,81.9,76.9,30.07,SSE,167,3.0,7.0,85,0.00,,---,0.00,VWS V14.01,2013-07-10 10:49:00,
2013-07-10 05:54:00,81.9,77.3,30.07,South,172,3.0,7.0,86,0.00,,---,0.00,VWS V14.01,2013-07-10 10:54:00,
2013-07-10 05:59:00,81.9,77.3,30.07,SSE,148,1.0,7.0,86,0.00,,---,0.00,VWS V14.01,2013-07-10 10:59:00,
2013-07-10 06:04:00,81.8,77.2,30.07,SSW,197,4.0,6.0,86,0.00,,---,0.00,VWS V14.01,2013-07-10 11:04:00,
2013-07-10 06:09:00,81.8,77.2,30.07,SSW,211,5.0,6.0,86,0.00,,---,0.00,VWS V14.01,2013-07-10 11:09:00,
2013-07-10 06:14:00,81.8,77.2,30.07,SSE,150,3.0,6.0,86,0.00,,---,0.00,VWS V14.01,2013-07-10 11:14:00,
2013-07-10 06:19:00,81.8,77.2,30.07,SSE,154,1.0,6.0,86,0.00,,---,0.00,VWS V14.01,2013-07-10 11:19:00,
2013-07-10 06:24:00,81.7,77.1,30.07,South,173,1.0,6.0,86,0.00,,---,0.00,VWS V14.01,2013-07-10 11:24:00,
2013-07-10 06:29:00,81.7,77.1,30.07,South,187,0.0,6.0,86,0.00,,---,0.00,VWS V14.01,2013-07-10 11:29:00,
2013-07-10 06:34:00,81.6,77.0,30.07,SSE,152,2.0,6.0,86,0.00,,---,0.00,VWS V14.01,2013-07-10 11:34:00,
2013-07-10 06:39:00,81.6,77.0,30.07,SSE,164,2.0,6.0,86,0.00,,---,0.00,VWS V14.01,2013-07-10 11:39:00,
2013-07-10 06:44:00,81.6,77.4,30.07,SSE,155,0.0,6.0,87,0.00,,---,0.00,VWS V14.01,2013-07-10 11:44:00,
2013-07-10 06:49:00,81.6,77.4,30.08,SSE,152,1.0,6.0,87,0.00,,---,0.00,VWS V14.01,2013-07-10 11:49:00,
2013-07-10 06:54:00,81.5,77.3,30.08,South,177,1.0,6.0,87,0.00,,---,0.00,VWS V14.01,2013-07-10 11:54:00,
2013-07-10 06:59:00,81.6,77.4,30.08,South,186,0.0,6.0,87,0.00,,---,0.00,VWS V14.01,2013-07-10 11:59:00,
2013-07-10 07:04:00,81.6,77.4,30.08,South,170,0.0,3.0,87,0.00,,---,0.00,VWS V14.01,2013-07-10 12:04:00,
2013-07-10 07:09:00,81.6,77.4,30.08,SSE,167,2.0,3.0,87,0.00,,---,0.00,VWS V14.01,2013-07-10 12:09:00,
2013-07-10 07:14:00,82.0,77.8,30.08,SE,146,0.0,3.0,87,0.00,,---,0.00,VWS V14.01,2013-07-10 12:14:00,
2013-07-10 07:19:00,82.4,77.8,30.08,SSE,165,4.0,4.0,86,0.00,,---,0.00,VWS V14.01,2013-07-10 12:19:00,
2013-07-10 07:24:00,82.7,77.7,30.08,SSE,159,4.0,4.0,85,0.00,,---,0.00,VWS V14.01,2013-07-10 12:24:00,
2013-07-10 07:29:00,83.0,78.0,30.08,South,175,2.0,5.0,85,0.00,,---,0.00,VWS V14.01,2013-07-10 12:29:00,
2013-07-10 07:34:00,83.5,78.2,30.08,SSE,168,3.0,5.0,84,0.00,,---,0.00,VWS V14.01,2013-07-10 12:34:00,
2013-07-10 07:39:00,83.8,78.1,30.08,SSE,155,1.0,5.0,83,0.00,,---,0.00,VWS V14.01,2013-07-10 12:39:00,
2013-07-10 07:44:00,84.1,78.0,30.08,SE,138,2.0,5.0,82,0.00,,---,0.00,VWS V14.01,2013-07-10 12:44:00,
2013-07-10 07:49:00,84.5,78.4,30.08,South,183,3.0,5.0,82,0.00,,---,0.00,VWS V14.01,2013-07-10 12:49:00,
2013-07-10 07:54:00,84.5,78.0,30.08,SSE,150,2.0,5.0,81,0.00,,---,0.00,VWS V14.01,2013-07-10 12:54:00,
2013-07-10 07:59:00,84.6,78.5,30.08,SE,144,1.0,5.0,82,0.00,,---,0.00,VWS V14.01,2013-07-10 12:59:00,
2013-07-10 08:04:00,84.9,78.8,30.09,South,173,3.0,4.0,82,0.00,,---,0.00,VWS V14.01,2013-07-10 13:04:00,
2013-07-10 08:09:00,85.1,78.2,30.09,SSE,148,4.0,5.0,80,0.00,,---,0.00,VWS V14.01,2013-07-10 13:09:00,
2013-07-10 08:14:00,85.1,78.2,30.09,SE,145,1.0,5.0,80,0.00,,---,0.00,VWS V14.01,2013-07-10 13:14:00,
2013-07-10 08:19:00,85.3,78.1,30.09,SSE,155,2.0,5.0,79,0.00,,---,0.00,VWS V14.01,2013-07-10 13:19:00,
2013-07-10 08:24:00,85.5,77.9,30.09,ESE,122,2.0,5.0,78,0.00,,---,0.00,VWS V14.01,2013-07-10 13:24:00,
2013-07-10 08:29:00,85.9,78.2,30.09,ESE,120,5.0,6.0,78,0.00,,---,0.00,VWS V14.01,2013-07-10 13:29:00,
2013-07-10 08:34:00,86.1,78.4,30.09,South,181,4.0,6.0,78,0.00,,---,0.00,VWS V14.01,2013-07-10 13:34:00,
2013-07-10 08:39:00,86.1,78.1,30.09,SE,134,0.0,6.0,77,0.00,,---,0.00,VWS V14.01,2013-07-10 13:39:00,
2013-07-10 08:44:00,85.7,78.4,30.09,SSE,152,3.0,6.0,79,0.00,,---,0.00,VWS V14.01,2013-07-10 13:44:00,
2013-07-10 08:49:00,86.0,78.3,30.09,SE,138,6.0,7.0,78,0.00,,---,0.00,VWS V14.01,2013-07-10 13:49:00,
2013-07-10 08:54:00,86.3,78.6,30.09,SE,130,6.0,7.0,78,0.00,,---,0.00,VWS V14.01,2013-07-10 13:54:00,
2013-07-10 08:59:00,86.2,78.5,30.09,SE,129,0.0,7.0,78,0.00,,---,0.00,VWS V14.01,2013-07-10 13:59:00,
2013-07-10 09:04:00,86.6,78.5,30.10,SSE,154,5.0,5.0,77,0.00,,---,0.00,VWS V14.01,2013-07-10 14:04:00,
2013-07-10 09:09:00,86.2,78.2,30.10,SW,231,0.0,8.0,77,0.00,,---,0.00,VWS V14.01,2013-07-10 14:09:00,
2013-07-10 09:14:00,85.6,78.0,30.09,WSW,242,2.0,8.0,78,0.00,,---,0.00,VWS V14.01,2013-07-10 14:14:00,
2013-07-10 09:19:00,85.2,78.3,30.10,SW,219,0.0,8.0,80,0.00,,---,0.00,VWS V14.01,2013-07-10 14:19:00,
2013-07-10 09:24:00,84.9,77.7,30.09,SSW,195,0.0,8.0,79,0.00,,---,0.00,VWS V14.01,2013-07-10 14:24:00,
2013-07-10 09:29:00,85.3,78.1,30.09,South,180,2.0,8.0,79,0.00,,---,0.00,VWS V14.01,2013-07-10 14:29:00,
2013-07-10 09:34:00,85.7,77.7,30.10,SSE,158,1.0,8.0,77,0.00,,---,0.00,VWS V14.01,2013-07-10 14:34:00,
2013-07-10 09:39:00,86.3,77.4,30.10,SSE,158,0.0,8.0,75,0.00,,---,0.00,VWS V14.01,2013-07-10 14:39:00,
2013-07-10 09:44:00,85.8,77.0,30.09,SSE,154,2.0,8.0,75,0.00,,---,0.00,VWS V14.01,2013-07-10 14:44:00,
2013-07-10 09:49:00,85.6,77.2,30.09,South,190,0.0,8.0,76,0.00,,---,0.00,VWS V14.01,2013-07-10 14:49:00,
2013-07-10 09:54:00,86.3,77.4,30.09,South,176,5.0,8.0,75,0.00,,---,0.00,VWS V14.01,2013-07-10 14:54:00,
2013-07-10 09:59:00,86.7,77.4,30.09,SE,133,4.0,8.0,74,0.00,,---,0.00,VWS V14.01,2013-07-10 14:59:00,
2013-07-10 10:04:00,86.1,76.4,30.09,SSW,201,2.0,6.0,73,0.00,,---,0.00,VWS V14.01,2013-07-10 15:04:00,
2013-07-10 10:09:00,85.8,77.0,30.10,East,98,0.0,6.0,75,0.00,,---,0.00,VWS V14.01,2013-07-10 15:09:00,
2013-07-10 10:14:00,85.8,77.4,30.09,ESE,116,6.0,6.0,76,0.00,,---,0.00,VWS V14.01,2013-07-10 15:14:00,
2013-07-10 10:19:00,85.9,78.2,30.09,ESE,106,0.0,7.0,78,0.00,,---,0.00,VWS V14.01,2013-07-10 15:19:00,
2013-07-10 10:24:00,86.5,78.0,30.09,ESE,120,2.0,7.0,76,0.00,,---,0.00,VWS V14.01,2013-07-10 15:24:00,
2013-07-10 10:29:00,86.8,77.9,30.09,ESE,106,5.0,7.0,75,0.00,,---,0.00,VWS V14.01,2013-07-10 15:29:00,
2013-07-10 10:34:00,86.6,77.7,30.09,SE,143,3.0,8.0,75,0.00,,---,0.00,VWS V14.01,2013-07-10 15:34:00,
2013-07-10 10:39:00,86.6,77.3,30.10,SE,143,2.0,10.0,74,0.00,,---,0.00,VWS V14.01,2013-07-10 15:39:00,
2013-07-10 10:44:00,86.9,78.0,30.09,ENE,75,4.0,10.0,75,0.00,,---,0.00,VWS V14.01,2013-07-10 15:44:00,
2013-07-10 10:49:00,87.0,77.7,30.10,ESE,122,4.0,10.0,74,0.00,,---,0.00,VWS V14.01,2013-07-10 15:49:00,
2013-07-10 10:54:00,86.5,77.6,30.10,SSE,149,0.0,10.0,75,0.00,,---,0.00,VWS V14.01,2013-07-10 15:54:00,
2013-07-10 10:59:00,86.9,78.4,30.10,SE,124,5.0,10.0,76,0.00,,---,0.00,VWS V14.01,2013-07-10 15:59:00,
2013-07-10 11:04:00,86.7,77.0,30.10,ESE,108,7.0,10.0,73,0.00,,---,0.00,VWS V14.01,2013-07-10 16:04:00,
2013-07-10 11:09:00,86.4,77.9,30.10,SE,132,9.0,10.0,76,0.00,,---,0.00,VWS V14.01,2013-07-10 16:09:00,
2013-07-10 11:14:00,86.3,77.4,30.10,ESE,113,8.0,10.0,75,0.00,,---,0.00,VWS V14.01,2013-07-10 16:14:00,
2013-07-10 11:19:00,86.3,77.0,30.10,SE,136,3.0,10.0,74,0.00,,---,0.00,VWS V14.01,2013-07-10 16:19:00,
2013-07-10 11:24:00,86.8,77.1,30.10,East,89,1.0,10.0,73,0.00,,---,0.00,VWS V14.01,2013-07-10 16:24:00,
2013-07-10 11:29:00,87.0,77.3,30.10,ESE,115,4.0,11.0,73,0.00,,---,0.00,VWS V14.01,2013-07-10 16:29:00,
2013-07-10 11:34:00,87.3,77.2,30.09,SE,124,6.0,11.0,72,0.00,,---,0.00,VWS V14.01,2013-07-10 16:34:00,
2013-07-10 11:39:00,87.2,76.7,30.10,SE,145,5.0,11.0,71,0.00,,---,0.00,VWS V14.01,2013-07-10 16:39:00,
2013-07-10 11:44:00,87.0,76.0,30.10,ESE,117,8.0,11.0,70,0.00,,---,0.00,VWS V14.01,2013-07-10 16:44:00,
2013-07-10 11:49:00,87.3,77.2,30.10,ESE,116,4.0,11.0,72,0.00,,---,0.00,VWS V14.01,2013-07-10 16:49:00,
2013-07-10 11:54:00,87.2,77.1,30.09,SE,125,8.0,12.0,72,0.00,,---,0.00,VWS V14.01,2013-07-10 16:54:00,
2013-07-10 11:59:00,87.2,77.1,30.10,ESE,104,12.0,13.0,72,0.00,,---,0.00,VWS V14.01,2013-07-10 16:59:00,
2013-07-10 12:04:00,86.7,76.6,30.10,SE,124,10.0,13.0,72,0.00,,---,0.00,VWS V14.01,2013-07-10 17:04:00,
2013-07-10 12:09:00,86.8,78.3,30.09,ESE,105,11.0,13.0,76,0.00,,---,0.00,VWS V14.01,2013-07-10 17:09:00,
2013-07-10 12:14:00,86.5,76.4,30.09,ESE,108,12.0,13.0,72,0.00,,---,0.00,VWS V14.01,2013-07-10 17:14:00,
2013-07-10 12:19:00,86.5,78.0,30.09,ESE,122,7.0,13.0,76,0.00,,---,0.00,VWS V14.01,2013-07-10 17:19:00,
2013-07-10 12:24:00,87.0,77.3,30.09,SE,141,6.0,13.0,73,0.00,,---,0.00,VWS V14.01,2013-07-10 17:24:00,
2013-07-10 12:29:00,87.2,77.5,30.09,ESE,103,9.0,13.0,73,0.00,,---,0.00,VWS V14.01,2013-07-10 17:29:00,
2013-07-10 12:34:00,87.3,78.0,30.09,South,176,1.0,13.0,74,0.00,,---,0.00,VWS V14.01,2013-07-10 17:34:00,
2013-07-10 12:39:00,87.7,77.1,30.09,South,172,6.0,13.0,71,0.00,,---,0.00,VWS V14.01,2013-07-10 17:39:00,
2013-07-10 12:45:00,87.9,77.8,30.08,SE,128,5.0,13.0,72,0.00,,---,0.00,VWS V14.01,2013-07-10 17:45:00,
2013-07-10 12:50:00,87.8,77.7,30.08,SSW,194,3.0,13.0,72,0.00,,---,0.00,VWS V14.01,2013-07-10 17:50:00,
2013-07-10 12:55:00,87.8,77.2,30.08,South,184,10.0,13.0,71,0.00,,---,0.00,VWS V14.01,2013-07-10 17:55:00,
2013-07-10 13:00:00,87.7,76.7,30.08,ESE,108,8.0,13.0,70,0.00,,---,0.00,VWS V14.01,2013-07-10 18:00:00,
2013-07-10 13:05:00,87.7,77.6,30.08,SE,145,9.0,11.0,72,0.00,,---,0.00,VWS V14.01,2013-07-10 18:05:00,
2013-07-10 13:10:00,87.7,77.1,30.08,SSE,155,9.0,11.0,71,0.00,,---,0.00,VWS V14.01,2013-07-10 18:10:00,
2013-07-10 13:15:00,88.1,77.9,30.08,SE,143,8.0,13.0,72,0.00,,---,0.00,VWS V14.01,2013-07-10 18:15:00,
2013-07-10 13:20:00,87.9,77.3,30.08,SSE,148,8.0,13.0,71,0.00,,---,0.00,VWS V14.01,2013-07-10 18:20:00,
2013-07-10 13:25:00,87.8,77.7,30.08,SSE,163,10.0,13.0,72,0.00,,---,0.00,VWS V14.01,2013-07-10 18:25:00,
2013-07-10 13:30:00,88.1,78.8,30.08,ESE,108,6.0,13.0,74,0.00,,---,0.00,VWS V14.01,2013-07-10 18:30:00,
2013-07-10 13:35:00,88.6,78.4,30.08,SE,139,8.0,13.0,72,0.00,,---,0.00,VWS V14.01,2013-07-10 18:35:00,
2013-07-10 13:40:00,88.6,78.8,30.07,ESE,117,6.0,13.0,73,0.00,,---,0.00,VWS V14.01,2013-07-10 18:40:00,
2013-07-10 13:45:00,88.7,77.7,30.07,SSE,160,7.0,13.0,70,0.00,,---,0.00,VWS V14.01,2013-07-10 18:45:00,
2013-07-10 13:50:00,88.3,77.3,30.07,SE,134,8.0,13.0,70,0.00,,---,0.00,VWS V14.01,2013-07-10 18:50:00,
2013-07-10 13:55:00,88.0,77.8,30.07,South,171,2.0,13.0,72,0.00,,---,0.00,VWS V14.01,2013-07-10 18:55:00,
2013-07-10 14:00:00,87.7,77.6,30.07,ESE,122,4.0,13.0,72,0.00,,---,0.00,VWS V14.01,2013-07-10 19:00:00,
2013-07-10 14:05:00,88.3,76.4,30.07,SSE,167,3.0,10.0,68,0.00,,---,0.00,VWS V14.01,2013-07-10 19:05:00,
2013-07-10 14:10:00,88.4,76.5,30.07,SSE,158,6.0,10.0,68,0.00,,---,0.00,VWS V14.01,2013-07-10 19:10:00,
2013-07-10 14:15:00,88.3,76.4,30.06,SSE,167,4.0,11.0,68,0.00,,---,0.00,VWS V14.01,2013-07-10 19:15:00,
2013-07-10 14:20:00,88.6,76.7,30.06,SSE,147,8.0,11.0,68,0.00,,---,0.00,VWS V14.01,2013-07-10 19:20:00,
2013-07-10 14:26:00,88.5,75.7,30.06,South,172,5.0,13.0,66,0.00,,---,0.00,VWS V14.01,2013-07-10 19:26:00,
2013-07-10 14:31:00,88.8,76.0,30.06,SE,131,5.0,13.0,66,0.00,,---,0.00,VWS V14.01,2013-07-10 19:31:00,
2013-07-10 14:36:00,88.8,76.0,30.06,SE,129,7.0,13.0,66,0.00,,---,0.00,VWS V14.01,2013-07-10 19:36:00,
2013-07-10 14:42:00,88.5,75.7,30.06,SSE,155,4.0,13.0,66,0.00,,---,0.00,VWS V14.01,2013-07-10 19:42:00,
2013-07-10 14:47:00,87.9,75.6,30.06,SE,144,7.0,14.0,67,0.00,,---,0.00,VWS V14.01,2013-07-10 19:47:00,
2013-07-10 14:52:00,87.5,75.2,30.06,SE,139,8.0,14.0,67,0.00,,---,0.00,VWS V14.01,2013-07-10 19:52:00,
2013-07-10 14:57:00,87.5,76.1,30.06,SE,145,6.0,14.0,69,0.00,,---,0.00,VWS V14.01,2013-07-10 19:57:00,
2013-07-10 15:03:00,87.7,75.8,30.06,SE,134,7.0,14.0,68,0.00,,---,0.00,VWS V14.01,2013-07-10 20:03:00,
2013-07-10 15:08:00,87.5,76.1,30.06,South,170,4.0,14.0,69,0.00,,---,0.00,VWS V14.01,2013-07-10 20:08:00,
2013-07-10 15:13:00,88.0,75.2,30.06,SSE,155,9.0,14.0,66,0.00,,---,0.00,VWS V14.01,2013-07-10 20:13:00,
2013-07-10 15:18:00,88.3,76.0,30.05,ESE,109,8.0,14.0,67,0.00,,---,0.00,VWS V14.01,2013-07-10 20:18:00,
2013-07-10 15:23:00,88.8,76.9,30.05,ESE,116,7.0,14.0,68,0.00,,---,0.00,VWS V14.01,2013-07-10 20:23:00,
2013-07-10 15:28:00,88.7,75.9,30.05,South,174,6.0,14.0,66,0.00,,---,0.00,VWS V14.01,2013-07-10 20:28:00,
2013-07-10 15:33:00,88.3,75.5,30.05,SE,141,10.0,14.0,66,0.00,,---,0.00,VWS V14.01,2013-07-10 20:33:00,
2013-07-10 15:38:00,88.5,76.2,30.05,South,188,8.0,14.0,67,0.00,,---,0.00,VWS V14.01,2013-07-10 20:38:00,
2013-07-10 15:43:00,88.5,75.7,30.04,SSE,159,6.0,14.0,66,0.00,,---,0.00,VWS V14.01,2013-07-10 20:43:00,
2013-07-10 15:48:00,88.5,77.0,30.05,SSE,159,12.0,14.0,69,0.00,,---,0.00,VWS V14.01,2013-07-10 20:48:00,
2013-07-10 15:53:00,88.4,76.9,30.04,SE,131,2.0,14.0,69,0.00,,---,0.00,VWS V14.01,2013-07-10 20:53:00,
2013-07-10 15:58:00,88.5,77.0,30.04,South,170,6.0,14.0,69,0.00,,---,0.00,VWS V14.01,2013-07-10 20:58:00,
2013-07-10 16:03:00,88.2,77.2,30.04,SE,124,10.0,11.0,70,0.00,,---,0.00,VWS V14.01,2013-07-10 21:03:00,
2013-07-10 16:08:00,88.1,77.5,30.04,East,80,2.0,11.0,71,0.00,,---,0.00,VWS V14.01,2013-07-10 21:08:00,
2013-07-10 16:13:00,88.3,77.3,30.04,SSE,156,5.0,11.0,70,0.00,,---,0.00,VWS V14.01,2013-07-10 21:13:00,
2013-07-10 16:18:00,88.3,77.3,30.04,ESE,122,6.0,13.0,70,0.00,,---,0.00,VWS V14.01,2013-07-10 21:18:00,
2013-07-10 16:23:00,87.8,77.2,30.03,SSE,149,10.0,13.0,71,0.00,,---,0.00,VWS V14.01,2013-07-10 21:23:00,
2013-07-10 16:28:00,87.5,76.9,30.03,SE,129,6.0,13.0,71,0.00,,---,0.00,VWS V14.01,2013-07-10 21:28:00,
2013-07-10 16:33:00,87.5,77.4,30.03,SSE,154,4.0,13.0,72,0.00,,---,0.00,VWS V14.01,2013-07-10 21:33:00,
2013-07-10 16:38:00,87.3,76.3,30.03,ESE,113,10.0,14.0,70,0.00,,---,0.00,VWS V14.01,2013-07-10 21:38:00,
2013-07-10 16:43:00,87.6,77.5,30.03,SSE,160,10.0,14.0,72,0.00,,---,0.00,VWS V14.01,2013-07-10 21:43:00,
2013-07-10 16:48:00,87.5,77.4,30.02,SSW,197,6.0,14.0,72,0.00,,---,0.00,VWS V14.01,2013-07-10 21:48:00,
2013-07-10 16:53:00,87.2,77.9,30.02,SE,146,6.0,14.0,74,0.00,,---,0.00,VWS V14.01,2013-07-10 21:53:00,
2013-07-10 16:58:00,87.4,77.7,30.02,SE,144,7.0,14.0,73,0.00,,---,0.00,VWS V14.01,2013-07-10 21:58:00,
2013-07-10 17:03:00,87.3,77.2,30.02,SSE,150,8.0,11.0,72,0.00,,---,0.00,VWS V14.01,2013-07-10 22:03:00,
2013-07-10 17:08:00,87.3,77.6,30.02,SSE,163,10.0,12.0,73,0.00,,---,0.00,VWS V14.01,2013-07-10 22:08:00,
2013-07-10 17:13:00,87.2,77.1,30.02,SE,124,11.0,12.0,72,0.00,,---,0.00,VWS V14.01,2013-07-10 22:13:00,
2013-07-10 17:18:00,87.2,76.2,30.01,SE,141,9.0,12.0,70,0.00,,---,0.00,VWS V14.01,2013-07-10 22:18:00,
2013-07-10 17:23:00,87.2,76.2,30.01,ESE,122,2.0,12.0,70,0.00,,---,0.00,VWS V14.01,2013-07-10 22:23:00,
2013-07-10 17:28:00,87.2,77.1,30.01,SE,129,9.0,12.0,72,0.00,,---,0.00,VWS V14.01,2013-07-10 22:28:00,
2013-07-10 17:33:00,87.5,76.9,30.00,SSE,158,8.0,12.0,71,0.00,,---,0.00,VWS V14.01,2013-07-10 22:33:00,
2013-07-10 17:38:00,87.5,76.9,30.00,ESE,108,10.0,12.0,71,0.00,,---,0.00,VWS V14.01,2013-07-10 22:38:00,
2013-07-10 17:43:00,87.4,76.8,30.00,SE,125,5.0,12.0,71,0.00,,---,0.00,VWS V14.01,2013-07-10 22:43:00,
2013-07-10 17:48:00,87.5,76.5,30.00,SSE,153,8.0,14.0,70,0.00,,---,0.00,VWS V14.01,2013-07-10 22:48:00,
2013-07-10 17:53:00,87.5,77.4,30.00,South,188,6.0,14.0,72,0.00,,---,0.00,VWS V14.01,2013-07-10 22:53:00,
2013-07-10 17:58:00,87.3,76.8,29.99,South,188,7.0,14.0,71,0.00,,---,0.00,VWS V14.01,2013-07-10 22:58:00,
2013-07-10 18:03:00,87.0,76.5,29.99,SE,129,7.0,12.0,71,0.00,,---,0.00,VWS V14.01,2013-07-10 23:03:00,
2013-07-10 18:08:00,86.8,76.7,29.99,South,172,10.0,13.0,72,0.00,,---,0.00,VWS V14.01,2013-07-10 23:08:00,
2013-07-10 18:13:00,86.7,76.6,29.99,ESE,122,5.0,13.0,72,0.00,,---,0.00,VWS V14.01,2013-07-10 23:13:00,
2013-07-10 18:18:00,86.7,75.8,29.99,South,190,6.0,13.0,70,0.00,,---,0.00,VWS V14.01,2013-07-10 23:18:00,
2013-07-10 18:23:00,86.9,76.8,29.99,South,187,7.0,13.0,72,0.00,,---,0.00,VWS V14.01,2013-07-10 23:23:00,
2013-07-10 18:28:00,86.8,76.7,29.99,ESE,116,2.0,13.0,72,0.00,,---,0.00,VWS V14.01,2013-07-10 23:28:00,
2013-07-10 18:33:00,86.5,76.4,29.99,South,191,7.0,13.0,72,0.00,,---,0.00,VWS V14.01,2013-07-10 23:33:00,
2013-07-10 18:38:00,86.3,76.6,29.99,South,176,6.0,13.0,73,0.00,,---,0.00,VWS V14.01,2013-07-10 23:38:00,
2013-07-10 18:43:00,86.1,76.4,29.98,SSE,165,7.0,13.0,73,0.00,,---,0.00,VWS V14.01,2013-07-10 23:43:00,
2013-07-10 18:48:00,86.1,75.6,29.99,SSE,165,9.0,13.0,71,0.00,,---,0.00,VWS V14.01,2013-07-10 23:48:00,
2013-07-10 18:53:00,85.9,75.8,29.98,SE,124,4.0,13.0,72,0.00,,---,0.00,VWS V14.01,2013-07-10 23:53:00,
2013-07-10 18:58:00,86.0,76.3,29.98,SSE,159,3.0,13.0,73,0.00,,---,0.00,VWS V14.01,2013-07-10 23:58:00,
2013-07-10 19:03:00,86.0,76.8,29.99,SSE,152,6.0,9.0,74,0.00,,---,0.00,VWS V14.01,2013-07-11 00:03:00,
2013-07-10 19:08:00,86.0,77.2,29.98,SE,145,6.0,10.0,75,0.00,,---,0.00,VWS V14.01,2013-07-11 00:08:00,
2013-07-10 19:13:00,85.8,77.0,29.98,SE,141,7.0,10.0,75,0.00,,---,0.00,VWS V14.01,2013-07-11 00:13:00,
2013-07-10 19:18:00,85.4,76.2,29.99,ESE,113,6.0,10.0,74,0.00,,---,0.00,VWS V14.01,2013-07-11 00:18:00,
2013-07-10 19:23:00,85.4,76.2,29.99,South,179,6.0,10.0,74,0.00,,---,0.00,VWS V14.01,2013-07-11 00:23:00,
2013-07-10 19:28:00,85.4,76.6,29.99,SSE,149,9.0,10.0,75,0.00,,---,0.00,VWS V14.01,2013-07-11 00:28:00,
2013-07-10 19:34:00,85.4,77.0,29.98,SSE,155,5.0,10.0,76,0.00,,---,0.00,VWS V14.01,2013-07-11 00:34:00,
2013-07-10 19:39:00,85.3,76.9,29.98,ESE,120,2.0,11.0,76,0.00,,---,0.00,VWS V14.01,2013-07-11 00:39:00,
2013-07-10 19:44:00,85.1,76.7,29.98,SSE,162,4.0,11.0,76,0.00,,---,0.00,VWS V14.01,2013-07-11 00:44:00,
2013-07-10 19:49:00,85.0,77.0,29.98,SE,131,5.0,11.0,77,0.00,,---,0.00,VWS V14.01,2013-07-11 00:49:00,
2013-07-10 19:54:00,84.8,76.8,29.98,ESE,122,6.0,11.0,77,0.00,,---,0.00,VWS V14.01,2013-07-11 00:54:00,
2013-07-10 19:59:00,84.6,77.0,29.98,SSE,154,5.0,11.0,78,0.00,,---,0.00,VWS V14.01,2013-07-11 00:59:00,
2013-07-10 20:05:00,84.5,77.3,29.98,SSE,151,5.0,9.0,79,0.00,,---,0.00,VWS V14.01,2013-07-11 01:05:00,
2013-07-10 20:11:00,84.4,77.6,29.98,SSE,149,5.0,9.0,80,0.00,,---,0.00,VWS V14.01,2013-07-11 01:11:00,
2013-07-10 20:16:00,84.0,77.2,29.98,SE,130,4.0,9.0,80,0.00,,---,0.00,VWS V14.01,2013-07-11 01:16:00,
2013-07-10 20:21:00,83.6,76.4,29.98,ESE,113,2.0,11.0,79,0.00,,---,0.00,VWS V14.01,2013-07-11 01:21:00,
2013-07-10 20:26:00,83.6,76.8,29.98,SE,125,6.0,11.0,80,0.00,,---,0.00,VWS V14.01,2013-07-11 01:26:00,
2013-07-10 20:31:00,83.4,77.0,29.98,SSE,163,2.0,11.0,81,0.00,,---,0.00,VWS V14.01,2013-07-11 01:31:00,
2013-07-10 20:36:00,83.4,77.3,29.99,SSE,158,5.0,11.0,82,0.00,,---,0.00,VWS V14.01,2013-07-11 01:36:00,
2013-07-10 20:41:00,83.2,77.1,29.98,SSE,165,2.0,11.0,82,0.00,,---,0.00,VWS V14.01,2013-07-11 01:41:00,
2013-07-10 20:46:00,83.1,77.0,29.99,SSE,165,7.0,11.0,82,0.00,,---,0.00,VWS V14.01,2013-07-11 01:46:00,
2013-07-10 20:51:00,83.1,77.0,29.99,SSE,150,1.0,11.0,82,0.00,,---,0.00,VWS V14.01,2013-07-11 01:51:00,
2013-07-10 20:56:00,83.0,76.9,29.99,South,177,1.0,11.0,82,0.00,,---,0.00,VWS V14.01,2013-07-11 01:56:00,
2013-07-10 21:01:00,83.0,76.9,29.99,SE,138,3.0,8.0,82,0.00,,---,0.00,VWS V14.01,2013-07-11 02:01:00,
2013-07-10 21:06:00,83.2,77.5,29.99,SE,146,7.0,8.0,83,0.00,,---,0.00,VWS V14.01,2013-07-11 02:06:00,
2013-07-10 21:11:00,82.9,76.5,29.99,SE,129,6.0,9.0,81,0.00,,---,0.00,VWS V14.01,2013-07-11 02:11:00,
2013-07-10 21:16:00,83.0,76.6,29.99,SSE,165,11.0,11.0,81,0.00,,---,0.00,VWS V14.01,2013-07-11 02:16:00,
2013-07-10 21:21:00,83.1,76.7,29.99,South,169,6.0,11.0,81,0.00,,---,0.00,VWS V14.01,2013-07-11 02:21:00,
2013-07-10 21:26:00,83.1,76.7,29.99,SE,137,3.0,11.0,81,0.00,,---,0.00,VWS V14.01,2013-07-11 02:26:00,
2013-07-10 21:31:00,83.0,76.9,29.99,SSE,161,3.0,11.0,82,0.00,,---,0.00,VWS V14.01,2013-07-11 02:31:00,
2013-07-10 21:36:00,83.1,77.0,29.99,SE,131,2.0,11.0,82,0.00,,---,0.00,VWS V14.01,2013-07-11 02:36:00,
2013-07-10 21:41:00,83.2,77.5,29.99,SSE,156,1.0,11.0,83,0.00,,---,0.00,VWS V14.01,2013-07-11 02:41:00,
2013-07-10 21:47:00,83.2,77.9,29.99,SSE,149,6.0,11.0,84,0.00,,---,0.00,VWS V14.01,2013-07-11 02:47:00,
2013-07-10 21:52:00,83.1,77.4,30.00,SSE,155,8.0,12.0,83,0.00,,---,0.00,VWS V14.01,2013-07-11 02:52:00,
2013-07-10 21:57:00,83.1,77.8,30.00,SSE,159,8.0,12.0,84,0.00,,---,0.00,VWS V14.01,2013-07-11 02:57:00,
2013-07-10 22:02:00,82.9,77.2,30.00,SSE,148,5.0,9.0,83,0.00,,---,0.00,VWS V14.01,2013-07-11 03:02:00,
2013-07-10 22:07:00,82.9,77.2,30.00,SE,127,5.0,11.0,83,0.00,,---,0.00,VWS V14.01,2013-07-11 03:07:00,
2013-07-10 22:12:00,82.9,77.2,30.00,ESE,120,5.0,11.0,83,0.00,,---,0.00,VWS V14.01,2013-07-11 03:12:00,
2013-07-10 22:17:00,83.0,77.3,30.01,South,187,3.0,12.0,83,0.00,,---,0.00,VWS V14.01,2013-07-11 03:17:00,
2013-07-10 22:22:00,82.9,76.8,30.01,South,179,5.0,12.0,82,0.00,,---,0.00,VWS V14.01,2013-07-11 03:22:00,
2013-07-10 22:27:00,82.9,76.8,30.01,SSE,168,5.0,12.0,82,0.00,,---,0.00,VWS V14.01,2013-07-11 03:27:00,
2013-07-10 22:32:00,82.9,76.8,30.01,ESE,117,7.0,12.0,82,0.00,,---,0.00,VWS V14.01,2013-07-11 03:32:00,
2013-07-10 22:37:00,82.9,76.8,30.01,South,175,7.0,12.0,82,0.00,,---,0.00,VWS V14.01,2013-07-11 03:37:00,
2013-07-10 22:42:00,82.9,76.8,30.01,SSE,166,4.0,12.0,82,0.00,,---,0.00,VWS V14.01,2013-07-11 03:42:00,
2013-07-10 22:47:00,82.8,76.8,30.01,SE,141,9.0,12.0,82,0.00,,---,0.00,VWS V14.01,2013-07-11 03:47:00,
2013-07-10 22:52:00,82.8,76.8,30.02,SSE,152,7.0,12.0,82,0.00,,---,0.00,VWS V14.01,2013-07-11 03:52:00,
2013-07-10 22:57:00,82.8,76.8,30.02,SE,138,4.0,12.0,82,0.00,,---,0.00,VWS V14.01,2013-07-11 03:57:00,
2013-07-10 23:01:00,82.8,76.8,30.01,SE,143,4.0,10.0,82,0.00,,---,0.00,VWS V14.01,2013-07-11 04:01:00,
2013-07-10 23:06:00,82.8,76.8,30.02,South,190,8.0,12.0,82,0.00,,---,0.00,VWS V14.01,2013-07-11 04:06:00,
2013-07-10 23:11:00,82.8,76.8,30.02,SE,142,7.0,12.0,82,0.00,,---,0.00,VWS V14.01,2013-07-11 04:11:00,
2013-07-10 23:16:00,82.9,77.2,30.02,SSE,155,5.0,12.0,83,0.00,,---,0.00,VWS V14.01,2013-07-11 04:16:00,
2013-07-10 23:21:00,82.9,77.6,30.02,SSE,165,6.0,12.0,84,0.00,,---,0.00,VWS V14.01,2013-07-11 04:21:00,
2013-07-10 23:26:00,82.8,77.5,30.02,SE,131,6.0,12.0,84,0.00,,---,0.00,VWS V14.01,2013-07-11 04:26:00,
2013-07-10 23:31:00,82.8,77.5,30.02,SE,139,9.0,12.0,84,0.00,,---,0.00,VWS V14.01,2013-07-11 04:31:00,
2013-07-10 23:36:00,82.7,77.0,30.02,South,187,9.0,12.0,83,0.00,,---,0.00,VWS V14.01,2013-07-11 04:36:00,
2013-07-10 23:41:00,82.8,77.1,30.02,South,170,10.0,12.0,83,0.00,,---,0.00,VWS V14.01,2013-07-11 04:41:00,
2013-07-10 23:46:00,82.8,77.1,30.02,SSW,195,3.0,12.0,83,0.00,,---,0.00,VWS V14.01,2013-07-11 04:46:00,
2013-07-10 23:51:00,82.8,77.5,30.02,ESE,114,9.0,12.0,84,0.00,,---,0.00,VWS V14.01,2013-07-11 04:51:00,
2013-07-10 23:56:00,82.8,77.5,30.02,South,170,5.0,12.0,84,0.00,,---,0.00,VWS V14.01,2013-07-11 04:56:00,